(215342) = 2001 US225 = 2006 WO61

Discovered at Palomar on 2001-10-16 by NEAT.

Orbit

Orbit type: Main Belt

Note: WebGL enabled browser required.

epoch2023-02-25.0
epoch JD2460000.5
perihelion date2019-11-16.44775
perihelion JD2458803.94775
argument of perihelion (°)243.22681
ascending node (°)89.50022
inclination (°)5.47559
eccentricity0.0748318
perihelion distance (AU)2.5777119
Tisserand w.r.t. Jupiter3.3
ΔV w.r.t. Earth (km/sec)10.2
semimajor axis (AU)2.7862090
mean anomaly (°)253.57999
mean daily motion (°/day)0.21192560
aphelion distance (AU)2.995
period (years)4.65
P-vector [x]0.88475983
P-vector [y]-0.38649791
P-vector [z]-0.26042159
Q-vector [x]0.45617480
Q-vector [y]0.83260319
Q-vector [z]0.31412814
absolute magnitude16.46
phase slope0.15
uncertainty0
referenceMPO 745323
observations used376
oppositions16
arc length (days)11170
first opposition used1992
last opposition used2023
residual rms (arc-secs)0.79
perturbers coarse indicatorM-v
perturbers precise indicator003Ek
first observation date used1992-11-18.0
last observation date used2023-06-19.0
computer nameMPCLINUX
JD of orbit computation2456376.471616
perihelion JD uncertainty (days)2.8285E-04
argument of perihelion uncertainty (°)8.0747E-05
ascending node uncertainty (°)6.0348E-05
inclination uncertainty (°)5.0862E-06
eccentricity uncertainty 5.7738E-08
perihelion distance uncertainty (AU)1.6664E-07
Minimum Orbit Intersection Distances (in AU)
for orbit epoch: 2460000.5, reference: E2023-M63
Mercury2.16309
Venus1.85021
Earth1.57118
Mars1.19846
Jupiter2.25323
Saturn6.16093
Uranus15.4627
Neptune27.1599

Observations

382 total observations over interval: 1992 11 18.29136 – 2023 06 19.378066
These data are available for download (format description).

Date (UT) J2000 RA J2000 Dec Magn Location Ref
1992 11 18.29136 03 12 31.38 +12 23 35.3   691 – Steward Observatory, Kitt Peak-Spacewatch MPS 208821
1992 11 18.31740 03 12 29.86 +12 23 32.8   691 – Steward Observatory, Kitt Peak-Spacewatch MPS 208821
1992 11 18.34442 03 12 28.33 +12 23 30.3 20.3 V 691 – Steward Observatory, Kitt Peak-Spacewatch MPS 208821
2001 09 26.32897 01 28 49.62 +00 13 35.5 20.4 R 644 – Palomar Mountain/NEAT MPS 208821
2001 09 26.35051 01 28 48.69 +00 13 28.8   644 – Palomar Mountain/NEAT MPS 208821
2001 09 26.37156 01 28 47.75 +00 13 22.3   644 – Palomar Mountain/NEAT MPS 208821
2001 10 10.35397 01 17 40.62 -00 52 22.1 19.4 R 644 – Palomar Mountain/NEAT MPS 208821
2001 10 10.37523 01 17 39.51 -00 52 27.3 19.4 R 644 – Palomar Mountain/NEAT MPS 208821
2001 10 16.30051 01 12 40.49 -01 16 31.7 20.1 R 644 – Palomar Mountain/NEAT MPS 208821
2001 10 16.32163 01 12 39.39 -01 16 36.4 19.7 R 644 – Palomar Mountain/NEAT MPS 208821
2001 10 16.34183 01 12 38.34 -01 16 40.9 20.0 R 644 – Palomar Mountain/NEAT MPS 208821
2001 10 21.33360 01 08 33.02 -01 33 49.5 20.2 R 644 – Palomar Mountain/NEAT MPS 208821
2001 10 21.35390 01 08 32.02 -01 33 53.1 19.8 R 644 – Palomar Mountain/NEAT MPS 208821
2001 10 21.37441 01 08 31.00 -01 33 57.0 19.8 R 644 – Palomar Mountain/NEAT MPS 208821
2005 08 08.05524 19 53 23.91 -25 48 07.6 18.9 R 807 – Cerro Tololo Observatory, La Serena MPS 208821
2005 08 08.17171 19 53 18.35 -25 48 29.3   807 – Cerro Tololo Observatory, La Serena MPS 208821
2005 08 09.06123 19 52 38.37 -25 51 10.4   807 – Cerro Tololo Observatory, La Serena MPS 208821
2006 10 18.44840 03 59 28.57 +15 07 08.1 20.8 V 691 – Steward Observatory, Kitt Peak-Spacewatch MPS 208821
2006 10 18.46580 03 59 28.02 +15 07 07.7 20.6 V 691 – Steward Observatory, Kitt Peak-Spacewatch MPS 208821
2006 10 18.48320 03 59 27.45 +15 07 04.9 21.2 V 691 – Steward Observatory, Kitt Peak-Spacewatch MPS 208821
2006 11 15.30367 03 37 46.84 +14 20 44.9 19.5 V G96 – Mt. Lemmon Survey MPS 208821
2006 11 15.30938 03 37 46.48 +14 20 44.5 19.5 V G96 – Mt. Lemmon Survey MPS 208821
2006 11 15.31514 03 37 46.16 +14 20 44.0 19.5 V G96 – Mt. Lemmon Survey MPS 208821
2006 11 15.32081 03 37 45.73 +14 20 45.4 18.6 V G96 – Mt. Lemmon Survey MPS 208821
2006 11 17.30321 03 35 53.77 +14 17 31.1 19.5 V 703 – Catalina Sky Survey MPS 190784
2006 11 17.31020 03 35 53.41 +14 17 30.9 19.6 V 703 – Catalina Sky Survey MPS 190784
2006 11 17.31719 03 35 52.90 +14 17 30.3 19.5 V 703 – Catalina Sky Survey MPS 190784
2006 11 17.32421 03 35 52.54 +14 17 29.1 19.4 V 703 – Catalina Sky Survey MPS 190784
2006 11 23.42337 03 30 09.75 +14 08 33.2 19.5 V G96 – Mt. Lemmon Survey MPS 190784
2006 11 23.42769 03 30 09.54 +14 08 32.7 19.5 V G96 – Mt. Lemmon Survey MPS 190784
2006 11 23.43202 03 30 09.28 +14 08 32.6 19.7 V G96 – Mt. Lemmon Survey MPS 190784
2006 11 23.43633 03 30 09.03 +14 08 32.2 19.6 V G96 – Mt. Lemmon Survey MPS 190784
2008 01 16.45909 10 14 36.47 +17 08 14.6 21.2 V 691 – Steward Observatory, Kitt Peak-Spacewatch MPS 234136
2008 01 16.47720 10 14 35.97 +17 08 20.4 20.7 V 691 – Steward Observatory, Kitt Peak-Spacewatch MPS 234136
2008 01 16.49532 10 14 35.41 +17 08 25.6 21.0 V 691 – Steward Observatory, Kitt Peak-Spacewatch MPS 234136
2008 02 10.17492 09 57 08.88 +19 28 46.7 20.3 V 691 – Steward Observatory, Kitt Peak-Spacewatch MPS 237396
2008 02 10.19257 09 57 07.93 +19 28 52.9 20.3 V 691 – Steward Observatory, Kitt Peak-Spacewatch MPS 237396
2008 02 10.21021 09 57 07.00 +19 28 59.1 20.3 V 691 – Steward Observatory, Kitt Peak-Spacewatch MPS 237396
2008 02 11.24804 09 56 13.12 +19 34 50.8 19.7 V G96 – Mt. Lemmon Survey MPS 237396
2008 02 11.25282 09 56 12.87 +19 34 52.6 20.4 V G96 – Mt. Lemmon Survey MPS 237396
2008 02 11.25760 09 56 12.62 +19 34 54.1 20.6 V G96 – Mt. Lemmon Survey MPS 237396
2008 02 11.26237 09 56 12.37 +19 34 55.4 20.2 V G96 – Mt. Lemmon Survey MPS 237396
2009 04 18.33881 15 32 52.39 -13 15 30.6 20.4 V 691 – Steward Observatory, Kitt Peak-Spacewatch MPS 284236
2009 04 18.35651 15 32 51.73 -13 15 28.6 20.6 V 691 – Steward Observatory, Kitt Peak-Spacewatch MPS 284236
2009 04 18.37416 15 32 51.02 -13 15 26.2 20.5 V 691 – Steward Observatory, Kitt Peak-Spacewatch MPS 284236
2009 05 17.26001 15 09 19.26 -12 10 41.1 19.9 V G96 – Mt. Lemmon Survey MPS 286852
2009 05 17.26760 15 09 18.82 -12 10 40.2 20.1 V G96 – Mt. Lemmon Survey MPS 286852
2009 05 17.27508 15 09 18.43 -12 10 39.3 20.2 V G96 – Mt. Lemmon Survey MPS 286852
2009 05 17.28281 15 09 18.03 -12 10 38.9 20.1 V G96 – Mt. Lemmon Survey MPS 286852
2010 05 30.855946 22 55 06.94 -11 37 35.1   C51 – WISE MPS 331828
2010 05 31.120553 22 55 23.515 -11 36 34.38   C51 – WISE MPS 903541
2010 05 31.252856 22 55 31.71 -11 36 05.8   C51 – WISE MPS 331828
2010 05 31.451376 22 55 44.10 -11 35 22.3   C51 – WISE MPS 331828
2010 05 31.517464 22 55 48.22 -11 35 06.8   C51 – WISE MPS 331828
2010 05 31.583681 22 55 52.27 -11 34 52.0   C51 – WISE MPS 331828
2010 05 31.649769 22 55 56.34 -11 34 37.5   C51 – WISE MPS 331828
2010 05 31.715984 22 56 00.45 -11 34 22.2   C51 – WISE MPS 331828
2010 05 31.782072 22 56 04.53 -11 34 07.6   C51 – WISE MPS 331828
2010 05 31.980591 22 56 16.80 -11 33 24.8   C51 – WISE MPS 331828
2010 06 01.112896 22 56 24.94 -11 32 55.3   C51 – WISE MPS 331828
2011 11 30.40106 06 13 52.22 +22 41 57.7 20.7 V 691 – Steward Observatory, Kitt Peak-Spacewatch MPS 403666
2011 11 30.41886 06 13 51.38 +22 41 59.6 20.7 V 691 – Steward Observatory, Kitt Peak-Spacewatch MPS 403666
2011 11 30.43665 06 13 50.47 +22 42 01.5 20.4 V 691 – Steward Observatory, Kitt Peak-Spacewatch MPS 403666
2011 12 06.37102 06 08 54.578 +22 53 00.27 20.2 i F51 – Pan-STARRS 1, Haleakala MPS 404179
2011 12 06.38581 06 08 53.764 +22 53 01.97 20.3 i F51 – Pan-STARRS 1, Haleakala MPS 404179
2011 12 06.55741 06 08 44.317 +22 53 21.27 20.5 i F51 – Pan-STARRS 1, Haleakala MPS 404179
2011 12 06.57032 06 08 43.620 +22 53 22.58 20.2 i F51 – Pan-STARRS 1, Haleakala MPS 404179
2011 12 06.58363 06 08 42.880 +22 53 24.04 20.5 r F51 – Pan-STARRS 1, Haleakala MPS 404179
2011 12 06.59548 06 08 42.239 +22 53 25.23 20.4 r F51 – Pan-STARRS 1, Haleakala MPS 404179
2012 01 31.11986 05 25 17.94 +24 08 17.6 20.8 V G96 – Mt. Lemmon Survey MPS 411352
2012 01 31.12743 05 25 17.86 +24 08 18.4 20.6 V G96 – Mt. Lemmon Survey MPS 411352
2012 01 31.13561 05 25 17.68 +24 08 19.1 20.5 V G96 – Mt. Lemmon Survey MPS 411352
2012 01 31.14420 05 25 17.58 +24 08 20.0 20.4 V G96 – Mt. Lemmon Survey MPS 411352
2013 02 07.42966 12 06 00.75 +07 21 33.1 21.3 V 691 – Steward Observatory, Kitt Peak-Spacewatch MPS 455898
2013 02 07.44477 12 06 00.47 +07 21 37.1 21.4 V 691 – Steward Observatory, Kitt Peak-Spacewatch MPS 455898
2013 02 07.45988 12 06 00.11 +07 21 40.9 21.9 V 691 – Steward Observatory, Kitt Peak-Spacewatch MPS 455898
2013 02 16.40531 12 02 15.28 +08 06 15.1 20.8 V 691 – Steward Observatory, Kitt Peak-Spacewatch MPS 457134
2013 02 16.42308 12 02 14.68 +08 06 21.0 21.1 V 691 – Steward Observatory, Kitt Peak-Spacewatch MPS 457134
2013 02 16.44074 12 02 14.14 +08 06 26.0 21.2 V 691 – Steward Observatory, Kitt Peak-Spacewatch MPS 457134
2013 02 17.44463 12 01 42.63 +08 11 53.9 20.5 V G96 – Mt. Lemmon Survey MPS 457134
2013 02 17.45730 12 01 42.24 +08 11 57.9 20.8 V G96 – Mt. Lemmon Survey MPS 457134
2013 02 17.46361 12 01 42.02 +08 12 00.1 20.8 V G96 – Mt. Lemmon Survey MPS 457134
2013 02 17.47002 12 01 41.80 +08 12 02.3 20.2 V G96 – Mt. Lemmon Survey MPS 457134
2013 03 03.21897 11 52 46.06 +09 31 51.9   691 – Steward Observatory, Kitt Peak-Spacewatch MPS 459001
2013 03 03.23667 11 52 45.23 +09 31 58.4   691 – Steward Observatory, Kitt Peak-Spacewatch MPS 459001
2013 03 03.25436 11 52 44.45 +09 32 04.9   691 – Steward Observatory, Kitt Peak-Spacewatch MPS 459002
2013 03 08.50798 11 48 40.277 +10 03 09.76 20.8 g F51 – Pan-STARRS 1, Haleakala MPS 459002
2013 03 08.51990 11 48 39.703 +10 03 13.70 20.7 g F51 – Pan-STARRS 1, Haleakala MPS 459002
2013 03 08.53295 11 48 39.043 +10 03 18.27 20.3 r F51 – Pan-STARRS 1, Haleakala MPS 459002
2013 03 08.54448 11 48 38.482 +10 03 22.45 20.5 r F51 – Pan-STARRS 1, Haleakala MPS 459002
2013 03 13.23272 11 44 51.14 +10 30 09.2   I41 – Palomar Mountain--ZTF MPS 460338
